| time (UTC) | temp C | wind direction | speed KPH | gust KPH | rain 1hr cm | rain 24hr cm | rain mn cm | humidity % | barometer mb |
| 20260905011539 | 17 | 323 | 0.0 | 3.2 | 0.00 | 0.15 | 0.15 | 86 | 1006.9 |
| 20260905010044 | 17 | 323 | 0.0 | 1.6 | 0.00 | 0.15 | 0.15 | 86 | 1006.8 |
| 20260905004540 | 18 | 262 | 0.0 | 4.8 | 0.00 | 0.15 | 0.15 | 87 | 1006.8 |
| 20260905003038 | 17 | 196 | 0.0 | 3.2 | 0.00 | 0.15 | 0.15 | 86 | 1006.8 |
| 20260905001538 | 18 | 195 | 0.0 | 3.2 | 0.00 | 0.15 | 0.15 | 86 | 1006.8 |
| 20260905000038 | 18 | 167 | 0.0 | 4.8 | 0.00 | 0.15 | 0.15 | 86 | 1006.7 |
| 20260904234544 | 18 | 160 | 0.0 | 4.8 | 0.00 | 0.15 | 0.15 | 85 | 1006.4 |
| 20260904233036 | 19 | 236 | 0.0 | 3.2 | 0.00 | 0.15 | 0.15 | 86 | 1006.4 |
| 20260904231536 | 19 | 277 | 0.0 | 3.2 | 0.00 | 0.15 | 0.15 | 86 | 1006.2 |
| 20260904230035 | 20 | 277 | 0.0 | 3.2 | 0.00 | 0.15 | 0.15 | 86 | 1006.3 |
| 20260904224541 | 20 | 277 | 0.0 | 1.6 | 0.00 | 0.15 | 0.15 | 86 | 1006.4 |
| 20260904223034 | 20 | 277 | 0.0 | 3.2 | 0.00 | 0.15 | 0.15 | 86 | 1006.1 |
| 20260904221534 | 20 | 277 | 0.0 | 1.6 | 0.00 | 0.15 | 0.15 | 85 | 1006.1 |
| 20260904220054 | 21 | 277 | 0.0 | 1.6 | 0.00 | 0.15 | 0.15 | 85 | 1006.3 |
| 20260904214537 | 21 | 277 | 0.0 | 3.2 | 0.00 | 0.15 | 0.15 | 85 | 1006.1 |
| 20260904213033 | 21 | 44 | 0.0 | 3.2 | 0.00 | 0.15 | 0.15 | 85 | 1006.0 |
| 20260904211536 | 21 | 32 | 0.0 | 6.4 | 0.00 | 0.15 | 0.15 | 84 | 1006.1 |
| 20260904210041 | 22 | 262 | 0.0 | 3.2 | 0.00 | 0.15 | 0.15 | 86 | 1006.0 |
| 20260904204532 | 22 | 117 | 0.0 | 1.6 | 0.00 | 0.15 | 0.15 | 86 | 1006.0 |
| 20260904203043 | 22 | 117 | 0.0 | 1.6 | 0.00 | 0.15 | 0.15 | 87 | 1005.9 |
| 20260904201530 | 22 | 117 | 0.0 | 0.0 | 0.00 | 0.15 | 0.15 | 87 | 1005.8 |
| 20260904200030 | 22 | 117 | 0.0 | 3.2 | 0.00 | 0.15 | 0.15 | 87 | 1005.9 |
| 20260904194530 | 22 | 117 | 0.0 | 1.6 | 0.00 | 0.15 | 0.15 | 87 | 1005.8 |
| 20260904193032 | 22 | 117 | 0.0 | 1.6 | 0.00 | 0.15 | 0.15 | 86 | 1005.8 |
| 20260904191539 | 22 | 117 | 0.0 | 1.6 | 0.00 | 0.15 | 0.15 | 87 | 1005.7 |
| 20260904190033 | 22 | 117 | 0.0 | 0.0 | 0.00 | 0.15 | 0.15 | 86 | 1005.9 |
| 20260904184528 | 22 | 117 | 0.0 | 1.6 | 0.00 | 0.15 | 0.15 | 86 | 1006.2 |
| 20260904183024 | 25 | 117 | 0.0 | 3.2 | 0.00 | 0.15 | 0.15 | 82 | 1006.1 |
| 20260904181521 | 23 | 119 | 1.6 | 4.8 | 0.08 | 0.15 | 0.15 | 85 | 1006.1 |
| 20260904180021 | 22 | 13 | 0.0 | 1.6 | 0.15 | 0.15 | 0.15 | 88 | 1006.3 |
| 20260904174519 | 20 | 13 | 0.0 | 1.6 | 0.15 | 0.15 | 0.15 | 87 | 1006.3 |
| 20260904173030 | 21 | 13 | 0.0 | 1.6 | 0.15 | 0.15 | 0.15 | 86 | 1006.4 |
| 20260904171517 | 23 | 14 | 0.0 | 9.7 | 0.08 | 0.08 | 0.08 | 80 | 1006.5 |
| 20260904170016 | 23 | 156 | 0.0 | 0.0 | 0.00 | 0.00 | 0.00 | 74 | 1006.3 |
| 20260904164516 | 25 | 156 | 1.6 | 8.0 | 0.00 | 0.00 | 0.00 | 66 | 1006.3 |
| 20260904163011 | 25 | 343 | 1.6 | 9.7 | 0.00 | 0.00 | 0.00 | 66 | 1006.4 |
| 20260904161510 | 24 | 351 | 1.6 | 6.4 | 0.00 | 0.00 | 0.00 | 69 | 1006.5 |
| 20260904160008 | 24 | 63 | 0.0 | 3.2 | 0.00 | 0.00 | 0.00 | 72 | 1007.0 |
| 20260904154506 | 25 | 78 | 3.2 | 4.8 | 0.00 | 0.00 | 0.00 | 68 | 1006.9 |
| 20260904153003 | 24 | 131 | 1.6 | 4.8 | 0.00 | 0.00 | 0.00 | 76 | 1006.9 |
| 20260904151559 | 23 | 153 | 1.6 | 9.7 | 0.00 | 0.00 | 0.00 | 83 | 1007.0 |
| 20260904144606 | 22 | 92 | 1.6 | 6.4 | 0.00 | 0.03 | 0.00 | 81 | 1007.2 |
| 20260904143056 | 22 | 37 | 0.0 | 6.4 | 0.00 | 0.03 | 0.00 | 84 | 1007.2 |
| 20260904141550 | 21 | 30 | 1.6 | 3.2 | 0.00 | 0.03 | 0.00 | 84 | 1007.5 |
| 20260904140056 | 21 | 117 | 0.0 | 1.6 | 0.00 | 0.03 | 0.00 | 86 | 1007.6 |
| 20260904134548 | 20 | 117 | 1.6 | 4.8 | 0.00 | 0.03 | 0.00 | 88 | 1007.6 |
| 20260904133040 | 19 | 52 | 1.6 | 3.2 | 0.00 | 0.03 | 0.00 | 89 | 1007.7 |
| 20260904131537 | 18 | 50 | 0.0 | 1.6 | 0.00 | 0.03 | 0.00 | 89 | 1007.7 |
| 20260904130036 | 18 | 50 | 1.6 | 6.4 | 0.00 | 0.03 | 0.00 | 90 | 1007.6 |
| 20260904124535 | 18 | 98 | 0.0 | 4.8 | 0.00 | 0.08 | 0.00 | 90 | 1007.8 |
| 20260904123032 | 18 | 34 | 0.0 | 4.8 | 0.00 | 0.08 | 0.00 | 91 | 1007.8 |
| 20260904121532 | 18 | 38 | 0.0 | 3.2 | 0.00 | 0.08 | 0.00 | 91 | 1007.8 |
| 20260904120030 | 17 | 28 | 1.6 | 4.8 | 0.00 | 0.08 | 0.00 | 91 | 1007.9 |
| 20260904114537 | 17 | 147 | 0.0 | 1.6 | 0.00 | 0.15 | 0.00 | 91 | 1007.8 |
| 20260904113033 | 17 | 147 | 0.0 | 1.6 | 0.00 | 0.15 | 0.00 | 91 | 1007.6 |
| 20260904111527 | 16 | 147 | 0.0 | 1.6 | 0.00 | 0.15 | 0.00 | 91 | 1007.7 |
| 20260904110027 | 16 | 147 | 0.0 | 1.6 | 0.00 | 0.15 | 0.00 | 91 | 1007.5 |
| 20260904104527 | 16 | 147 | 0.0 | 0.0 | 0.00 | 0.18 | 0.00 | 91 | 1007.6 |
| 20260904103029 | 16 | 147 | 0.0 | 1.6 | 0.00 | 0.18 | 0.00 | 91 | 1007.4 |
| 20260904101526 | 16 | 153 | 0.0 | 1.6 | 0.00 | 0.18 | 0.00 | 91 | 1007.3 |
| 20260904100024 | 16 | 144 | 0.0 | 1.6 | 0.00 | 0.18 | 0.00 | 91 | 1007.2 |
| 20260904094535 | 16 | 144 | 0.0 | 3.2 | 0.00 | 0.20 | 0.00 | 91 | 1007.2 |
| 20260904093020 | 17 | 144 | 0.0 | 3.2 | 0.00 | 0.20 | 0.00 | 91 | 1007.3 |
| 20260904091521 | 17 | 144 | 0.0 | 0.0 | 0.00 | 0.20 | 0.00 | 91 | 1007.3 |
| 20260904090018 | 17 | 144 | 0.0 | 3.2 | 0.00 | 0.20 | 0.00 | 91 | 1007.4 |
| 20260904084518 | 17 | 144 | 1.6 | 3.2 | 0.00 | 0.46 | 0.00 | 91 | 1007.6 |
| 20260904083017 | 17 | 144 | 0.0 | 0.0 | 0.00 | 0.46 | 0.00 | 91 | 1007.5 |
| 20260904081518 | 17 | 144 | 0.0 | 1.6 | 0.00 | 0.46 | 0.00 | 91 | 1007.4 |
| 20260904080016 | 17 | 144 | 0.0 | 1.6 | 0.00 | 0.46 | 0.00 | 91 | 1007.2 |
| 20260904074516 | 17 | 144 | 0.0 | 0.0 | 0.00 | 0.46 | 0.00 | 91 | 1007.2 |
| 20260904073013 | 17 | 145 | 0.0 | 3.2 | 0.00 | 0.46 | 0.00 | 91 | 1007.6 |
| 20260904071516 | 17 | 145 | 0.0 | 1.6 | 0.00 | 0.46 | 0.00 | 91 | 1007.6 |
| 20260904070015 | 17 | 145 | 1.6 | 3.2 | 0.00 | 0.46 | 0.00 | 91 | 1007.8 |
| 20260904064510 | 17 | 145 | 0.0 | 4.8 | 0.00 | 0.48 | 0.00 | 91 | 1007.8 |
| 20260904063012 | 17 | 69 | 0.0 | 3.2 | 0.00 | 0.48 | 0.00 | 91 | 1007.9 |
| 20260904061505 | 17 | 44 | 0.0 | 3.2 | 0.00 | 0.48 | 0.00 | 91 | 1008.2 |
| 20260904060004 | 17 | 86 | 0.0 | 1.6 | 0.00 | 0.48 | 0.00 | 91 | 1008.4 |
| 20260904054502 | 17 | 86 | 0.0 | 1.6 | 0.00 | 0.48 | 0.00 | 91 | 1008.6 |
| 20260904053101 | 17 | 86 | 0.0 | 3.2 | 0.00 | 0.48 | 0.00 | 91 | 1008.8 |
| 20260904051559 | 17 | 86 | 0.0 | 1.6 | 0.00 | 0.48 | 0.00 | 91 | 1008.8 |
| 20260904050059 | 17 | 86 | 0.0 | 1.6 | 0.00 | 0.48 | 0.00 | 91 | 1009.0 |
| 20260904044557 | 17 | 86 | 0.0 | 1.6 | 0.00 | 0.48 | 0.00 | 91 | 1009.1 |
| 20260904043104 | 17 | 86 | 0.0 | 3.2 | 0.00 | 0.48 | 0.00 | 91 | 1009.0 |
| 20260904041553 | 17 | 86 | 0.0 | 1.6 | 0.00 | 0.48 | 0.00 | 91 | 1009.2 |
| 20260904040053 | 17 | 86 | 1.6 | 3.2 | 0.00 | 0.48 | 0.00 | 91 | 1009.3 |
| 20260904034550 | 17 | 86 | 0.0 | 1.6 | 0.00 | 0.48 | 0.48 | 91 | 1009.8 |
| 20260904033049 | 17 | 86 | 0.0 | 0.0 | 0.00 | 0.48 | 0.48 | 90 | 1009.8 |
| 20260904031550 | 17 | 86 | 0.0 | 0.0 | 0.00 | 0.48 | 0.48 | 90 | 1009.7 |
| 20260904030048 | 17 | 86 | 0.0 | 1.6 | 0.00 | 0.48 | 0.48 | 90 | 1009.7 |
| 20260904024558 | 17 | 86 | 0.0 | 0.0 | 0.00 | 0.48 | 0.48 | 90 | 1009.9 |
| 20260904023047 | 17 | 86 | 0.0 | 0.0 | 0.00 | 0.48 | 0.48 | 90 | 1010.1 |
| 20260904021553 | 17 | 86 | 0.0 | 1.6 | 0.00 | 0.48 | 0.48 | 90 | 1010.2 |
| 20260904020046 | 17 | 86 | 0.0 | 0.0 | 0.00 | 0.48 | 0.48 | 90 | 1010.1 |
| 20260904014551 | 17 | 86 | 0.0 | 0.0 | 0.00 | 0.48 | 0.48 | 90 | 1010.3 |
| 20260904013106 | 17 | 86 | 0.0 | 1.6 | 0.00 | 0.48 | 0.48 | 90 | 1010.5 |